Home   Weather   Cloppenburg   Past weeks

Flag for Germany Past Weather in Cloppenburg, Lower Saxony, Germany — Yesterday and Last 2 Weeks

Now
54 °F

Cool.


Feels Like: 53 °F
Forecast: 36 / 58 °F
Wind: 3 mph from North

Location: Meppen-Mil

Current Time: Apr 29, 2017 at 7:53:07 pm

Latest Report: Apr 29, 2017 at 7:20 pm


Visibility: N/A

Pressure: 30.04 "Hg

Humidity: 41%

Dew Point: 30 °F

Location of CloppenburgLocation

Past Weather in Cloppenburg — Graph

°F

Cloppenburg Temperature Yesterday

Maximum temperature yesterday: 52 °F (at 4:20 pm)
Minimum temperature yesterday: 37 °F (at 11:20 pm)
Average temperature yesterday: 45 °F

High & Low Weather Summary for the Past Weeks

 TemperatureHumidityPressure
High59 °F (Apr 21, 2:20 pm)100% (Apr 26, 7:20 am)30.63 "Hg (Apr 26, 7:20 am)
Low25 °F (Apr 20, 4:20 am)30% (Apr 20, 2:20 pm)29.62 "Hg (Apr 25, 4:20 am)
Average44 °F69%30.11 "Hg
* Reported Apr 14 6:20 pm — Apr 29 6:20 pm, Cloppenburg, Weather by CustomWeather, © 2017

Note: Actual official high and low records may vary slightly from our data, if they occured in-between our weather recording intervals... More about our weather records

Advertising

Cloppenburg Weather History for the Previous 24 Hours

Scroll right to see more
 ConditionsComfort  
Time TempWeatherWind HumidityBarometerVisibility
6:20 pm
Sat, Apr 29
54 °FCool.3 mph38%30.04 "HgN/A
5:20 pm54 °FCool.3 mph41%30.07 "HgN/A
4:20 pm55 °FRefreshingly cool.5 mph38%30.07 "HgN/A
3:20 pm55 °FRefreshingly cool.5 mph38%30.07 "HgN/A
2:20 pm52 °FCool.6 mph47%30.07 "HgN/A
1:20 pm52 °FCool.7 mph44%30.07 "HgN/A
12:20 pm52 °FCool.3 mph44%30.07 "HgN/A
11:20 am50 °FCool.6 mph43%30.07 "HgN/A
10:20 am48 °FCool.5 mph54%30.07 "HgN/A
9:20 am48 °FCool.6 mph62%30.07 "HgN/A
8:20 am43 °FQuite cool.5 mph76%30.04 "HgN/A
7:20 am37 °FChilly.3 mph93%30.04 "HgN/A
6:20 am34 °FChilly.1 mph93%30.04 "HgN/A
5:20 am34 °FChilly.3 mph93%30.04 "Hg2 mi
4:20 am34 °FChilly.2 mph93%30.01 "HgN/A
3:20 am36 °FChilly.2 mph93%30.01 "HgN/A
2:20 am36 °FChilly.2 mph87%30.01 "HgN/A
1:20 am36 °FChilly.2 mph93%30.01 "HgN/A
12:20 am37 °FChilly.2 mph93%30.01 "HgN/A
11:20 pm
Fri, Apr 28
37 °FChilly.1 mph87%29.98 "HgN/A
10:20 pm39 °FChilly.2 mph81%29.98 "HgN/A
9:20 pm43 °FQuite cool.2 mph71%29.98 "HgN/A
8:20 pm46 °FCool.7 mph66%29.95 "HgN/A
7:20 pm50 °FCool.5 mph54%29.95 "HgN/A
Weather by CustomWeather, © 2017

See weather overviewHow to use our weather pages